DW5852 Weather Reports


Display with metric or nautical units.
time (UTC)temp
F
wind
direction
speed
MPH
gust
MPH
rain 1hr
in
rain 24hr
in
rain mn
in
humidity
%
barometer
mb
20210622134727 60 148 3.0 10.0 0.00 0.00 0.00 76 1031.8
20210622134227 60 266 1.0 6.0 0.00 0.00 0.00 77 1031.9
20210622133727 59 155 1.0 4.0 0.00 0.00 0.00 78 1031.9
20210622133227 60 131 3.0 9.0 0.00 0.00 0.00 77 1031.9
20210622132727 60 194 1.0 7.0 0.00 0.00 0.00 78 1031.9
20210622132227 59 203 1.0 4.0 0.00 0.00 0.00 78 1031.9
20210622131727 59 187 1.0 7.0 0.00 0.00 0.00 78 1032.1
20210622131227 59 153 4.0 7.0 0.00 0.00 0.00 78 1032.2
20210622130727 59 197 1.0 7.0 0.00 0.00 0.00 78 1032.2
20210622130227 59 146 4.0 8.0 0.00 0.00 0.00 78 1032.2
20210622125728 59 193 1.0 8.0 0.00 0.00 0.00 79 1032.2
20210622125227 58 222 1.0 7.0 0.00 0.00 0.00 80 1032.3
20210622124727 58 184 4.0 7.0 0.00 0.00 0.00 80 1032.5
20210622124228 58 179 1.0 7.0 0.00 0.00 0.00 81 1032.5
20210622123727 57 236 4.0 8.0 0.00 0.00 0.00 81 1032.6
20210622123227 57 150 3.0 6.0 0.00 0.00 0.00 81 1032.7
20210622122727 57 176 2.0 9.0 0.00 0.00 0.00 81 1032.8
20210622122227 57 170 6.0 8.0 0.00 0.00 0.00 81 1032.8
20210622121728 57 184 4.0 9.0 0.00 0.00 0.00 81 1032.8
20210622121227 57 190 2.0 8.0 0.00 0.00 0.00 80 1032.7
20210622120727 57 243 1.0 6.0 0.00 0.00 0.00 80 1032.7
20210622120227 57 174 1.0 8.0 0.00 0.00 0.00 80 1032.8
20210622115729 57 176 1.0 9.0 0.00 0.00 0.00 80 1032.8
20210622115229 57 184 7.0 9.0 0.00 0.00 0.00 80 1032.8
20210622114729 57 262 2.0 10.0 0.00 0.00 0.00 80 1032.8
20210622114227 56 171 4.0 8.0 0.00 0.00 0.00 80 1032.8
20210622113727 56 203 3.0 10.0 0.00 0.00 0.00 80 1032.8
20210622113227 56 163 4.0 7.0 0.00 0.00 0.00 80 1032.8
20210622112727 56 225 4.0 9.0 0.00 0.00 0.00 80 1033.1
20210622112228 56 116 2.0 8.0 0.00 0.00 0.00 80 1033.1
20210622111727 56 188 0.0 5.0 0.00 0.00 0.00 80 1033.1
20210622111227 56 203 0.0 7.0 0.00 0.00 0.00 79 1033.2
20210622110728 56 225 2.0 7.0 0.00 0.00 0.00 78 1033.3
20210622110228 56 184 3.0 6.0 0.00 0.00 0.00 78 1033.4
20210622105727 56 259 2.0 5.0 0.00 0.00 0.00 77 1033.4
20210622105227 56 188 1.0 6.0 0.00 0.00 0.00 77 1033.5
20210622104728 57 246 3.0 7.0 0.00 0.00 0.00 76 1033.6
20210622104229 57 186 2.0 6.0 0.00 0.00 0.00 76 1033.7
20210622103728 57 259 4.0 9.0 0.00 0.00 0.00 76 1033.7
20210622103227 57 258 5.0 7.0 0.00 0.00 0.00 75 1033.9
20210622102730 57 224 2.0 6.0 0.00 0.00 0.00 75 1033.9
20210622102228 57 222 1.0 9.0 0.00 0.00 0.00 75 1033.9
20210622101728 57 235 2.0 9.0 0.00 0.00 0.00 74 1034.1
20210622101227 57 212 1.0 7.0 0.00 0.00 0.00 74 1034.2
20210622100727 57 233 5.0 7.0 0.00 0.00 0.00 74 1034.4
20210622100227 57 200 2.0 7.0 0.00 0.00 0.00 73 1034.5
20210622095728 57 139 3.0 6.0 0.00 0.00 0.00 73 1034.6
20210622095228 58 145 4.0 7.0 0.00 0.00 0.00 72 1034.6
20210622094728 58 173 4.0 8.0 0.00 0.00 0.00 72 1034.7
20210622094228 58 248 2.0 5.0 0.00 0.00 0.00 72 1034.8
20210622093728 58 165 2.0 9.0 0.00 0.00 0.00 71 1034.7
20210622093229 58 193 4.0 11.0 0.00 0.00 0.00 71 1034.8
20210622092727 58 243 9.0 12.0 0.00 0.00 0.00 71 1035.0
20210622092228 58 278 4.0 10.0 0.00 0.00 0.00 70 1035.1
20210622091728 58 259 2.0 8.0 0.00 0.00 0.00 70 1035.2
20210622091228 59 261 5.0 8.0 0.00 0.00 0.00 70 1035.3
20210622090727 59 173 3.0 12.0 0.00 0.00 0.00 69 1035.4
20210622090228 59 238 2.0 13.0 0.00 0.00 0.00 69 1035.5
20210622085727 59 241 4.0 10.0 0.00 0.00 0.00 69 1035.6
20210622085229 59 238 10.0 10.0 0.00 0.00 0.00 69 1035.6
20210622084728 59 206 3.0 10.0 0.00 0.00 0.00 69 1035.7
20210622084228 59 195 7.0 10.0 0.00 0.00 0.00 68 1035.8
20210622083728 59 248 8.0 10.0 0.00 0.00 0.00 68 1035.8
20210622083227 59 190 4.0 8.0 0.00 0.00 0.00 68 1036.0
20210622082727 59 212 6.0 11.0 0.00 0.00 0.00 68 1036.0
20210622082228 59 207 5.0 9.0 0.00 0.00 0.00 67 1036.1
20210622081728 59 239 6.0 13.0 0.00 0.00 0.00 67 1036.2
20210622081228 59 258 3.0 14.0 0.00 0.00 0.00 67 1036.2
20210622080728 59 210 2.0 9.0 0.00 0.00 0.00 67 1036.3
20210622080227 60 207 3.0 10.0 0.00 0.00 0.00 67 1036.4
20210622075727 60 200 6.0 9.0 0.00 0.00 0.00 66 1036.4
20210622075228 60 235 4.0 11.0 0.00 0.00 0.00 66 1036.5
20210622074727 60 266 5.0 10.0 0.00 0.00 0.00 66 1036.6
20210622074227 60 215 6.0 9.0 0.00 0.00 0.00 66 1036.9
20210622073727 60 268 4.0 9.0 0.00 0.00 0.00 66 1036.9
20210622073227 60 281 4.0 8.0 0.00 0.00 0.00 66 1037.1
20210622072727 60 246 3.0 8.0 0.00 0.00 0.00 66 1037.2
20210622072228 60 241 4.0 9.0 0.00 0.00 0.00 65 1037.3
20210622071728 60 251 2.0 8.0 0.00 0.00 0.00 65 1037.4
20210622071227 60 249 5.0 10.0 0.00 0.00 0.00 65 1037.4
20210622070727 60 162 6.0 9.0 0.00 0.00 0.00 65 1037.5
20210622070227 60 167 2.0 8.0 0.00 0.00 0.00 65 1037.6
20210622065727 60 252 2.0 9.0 0.00 0.00 0.00 64 1037.7
20210622065227 60 241 5.0 11.0 0.00 0.00 0.00 64 1037.8
20210622064727 60 240 2.0 7.0 0.00 0.00 0.00 64 1037.9
20210622064227 61 195 4.0 8.0 0.00 0.00 0.00 64 1038.0
20210622063728 61 197 1.0 12.0 0.00 0.00 0.00 63 1038.0
20210622063228 61 229 3.0 9.0 0.00 0.00 0.00 63 1038.1
20210622062729 61 248 3.0 8.0 0.00 0.00 0.00 63 1038.3
20210622062228 61 179 2.0 7.0 0.00 0.00 0.00 63 1038.3
20210622061728 61 243 2.0 7.0 0.00 0.00 0.00 63 1038.3
20210622061228 61 239 3.0 6.0 0.00 0.00 0.00 62 1038.4
20210622060727 61 172 4.0 9.0 0.00 0.00 0.00 62 1038.5
20210622060228 62 207 5.0 11.0 0.00 0.00 0.00 62 1038.5
20210622055728 62 183 7.0 10.0 0.00 0.00 0.00 61 1038.5
20210622055228 62 263 5.0 10.0 0.00 0.00 0.00 61 1038.5
20210622054728 62 257 6.0 9.0 0.00 0.00 0.00 61 1038.6
20210622054229 62 235 5.0 13.0 0.00 0.00 0.00 61 1038.5
20210622053728 62 221 4.0 10.0 0.00 0.00 0.00 60 1038.6
20210622053228 62 187 2.0 10.0 0.00 0.00 0.00 60 1038.8
20210622052727 62 281 6.0 10.0 0.00 0.00 0.00 60 1038.7
20210622052229 62 218 3.0 10.0 0.00 0.00 0.00 59 1038.8
20210622051727 63 194 4.0 11.0 0.00 0.00 0.00 59 1038.7
20210622051228 63 188 4.0 11.0 0.00 0.00 0.00 59 1038.7
20210622050729 63 194 7.0 14.0 0.00 0.00 0.00 59 1038.7
20210622050229 63 226 4.0 14.0 0.00 0.00 0.00 58 1038.7
20210622045728 63 235 4.0 11.0 0.00 0.00 0.00 58 1038.7
20210622045228 63 190 4.0 12.0 0.00 0.00 0.00 58 1038.7
20210622044727 63 278 7.0 12.0 0.00 0.00 0.00 58 1038.7
20210622044227 64 276 6.0 10.0 0.00 0.00 0.00 57 1038.6
20210622043727 64 218 6.0 12.0 0.00 0.00 0.00 57 1038.7
20210622043228 64 177 6.0 12.0 0.00 0.00 0.00 56 1038.6
20210622042728 64 340 5.0 13.0 0.00 0.00 0.00 56 1038.5
20210622042229 64 221 7.0 11.0 0.00 0.00 0.00 56 1038.6
20210622041729 64 190 4.0 12.0 0.00 0.00 0.00 56 1038.6
20210622041227 65 194 3.0 12.0 0.00 0.00 0.00 55 1038.6
20210622040728 65 252 5.0 12.0 0.00 0.00 0.00 55 1038.5
20210622040228 65 205 4.0 16.0 0.00 0.00 0.00 55 1038.4
20210622035727 65 238 6.0 11.0 0.00 0.00 0.00 55 1038.4
20210622035227 65 249 8.0 11.0 0.00 0.00 0.00 55 1038.4
20210622034727 65 270 5.0 15.0 0.00 0.00 0.00 54 1038.3
20210622034227 65 189 3.0 9.0 0.00 0.00 0.00 54 1038.3
20210622033727 65 310 5.0 11.0 0.00 0.00 0.00 54 1038.2
20210622033227 66 205 4.0 13.0 0.00 0.00 0.00 53 1038.2
20210622032727 66 169 9.0 11.0 0.00 0.00 0.00 53 1038.2
20210622032227 66 177 9.0 16.0 0.00 0.00 0.00 52 1038.2
20210622031727 66 223 8.0 17.0 0.00 0.00 0.00 52 1038.1
20210622031227 67 204 6.0 17.0 0.00 0.00 0.00 52 1038.1
20210622030727 67 176 7.0 14.0 0.00 0.00 0.00 51 1038.0
20210622030227 67 184 5.0 13.0 0.00 0.00 0.00 51 1038.0
20210622025727 67 215 5.0 13.0 0.00 0.00 0.00 50 1038.1
20210622025227 68 188 3.0 11.0 0.00 0.00 0.00 50 1038.1
20210622024727 68 139 5.0 11.0 0.00 0.00 0.00 49 1037.9
20210622024227 68 174 3.0 17.0 0.00 0.00 0.00 49 1037.9
20210622023727 69 183 3.0 14.0 0.00 0.00 0.00 48 1037.9
20210622023227 69 193 8.0 14.0 0.00 0.00 0.00 48 1037.7
20210622022727 69 191 4.0 10.0 0.00 0.00 0.00 47 1037.6
20210622022227 70 164 3.0 13.0 0.00 0.00 0.00 47 1037.6
20210622021728 70 174 12.0 12.0 0.00 0.00 0.00 46 1037.5
20210622021228 70 240 6.0 13.0 0.00 0.00 0.00 46 1037.4
20210622020728 71 125 2.0 15.0 0.00 0.00 0.00 45 1037.2
20210622020228 71 191 7.0 13.0 0.00 0.00 0.00 44 1037.2
20210622015728 72 186 13.0 16.0 0.00 0.00 0.00 43 1036.9
20210622015229 73 188 10.0 15.0 0.00 0.00 0.00 43 1036.8
20210622014728 73 136 10.0 16.0 0.00 0.00 0.00 42 1036.8
20210622014227 73 183 6.0 18.0 0.00 0.00 0.00 42 1036.6
20210622013727 74 170 8.0 14.0 0.00 0.00 0.00 41 1036.7
20210622013227 74 221 8.0 19.0 0.00 0.00 0.00 41 1036.6
20210622012729 75 149 3.0 16.0 0.00 0.00 0.00 40 1036.4
20210622012227 75 200 9.0 15.0 0.00 0.00 0.00 40 1036.3
20210622011727 76 187 6.0 17.0 0.00 0.00 0.00 39 1036.1
20210622011227 76 134 4.0 13.0 0.00 0.00 0.00 39 1036.1
20210622010728 77 232 7.0 14.0 0.00 0.00 0.00 38 1036.0
20210622010228 77 162 8.0 15.0 0.00 0.00 0.00 38 1036.1
20210622005728 77 141 8.0 15.0 0.00 0.00 0.00 38 1035.9
20210622005227 77 194 5.0 13.0 0.00 0.00 0.00 38 1035.8
20210622004727 77 200 7.0 17.0 0.00 0.00 0.00 38 1035.7
20210622004228 77 245 6.0 16.0 0.00 0.00 0.00 37 1035.7
20210622003727 78 132 7.0 17.0 0.00 0.00 0.00 36 1035.6
20210622003227 78 266 6.0 15.0 0.00 0.00 0.00 36 1035.6
20210622002728 79 193 9.0 14.0 0.00 0.00 0.00 36 1035.5
20210622002228 79 204 8.0 17.0 0.00 0.00 0.00 35 1035.5
20210622001728 80 232 3.0 17.0 0.00 0.00 0.00 35 1035.3
20210622001228 80 229 7.0 19.0 0.00 0.00 0.00 34 1035.3
20210622000729 80 169 13.0 13.0 0.00 0.00 0.00 35 1035.2
20210622000227 80 210 4.0 14.0 0.00 0.00 0.00 35 1035.1
20210621235728 79 166 16.0 18.0 0.00 0.00 0.00 35 1035.1
20210621235227 78 178 8.0 16.0 0.00 0.00 0.00 36 1035.0
20210621234727 78 169 5.0 17.0 0.00 0.00 0.00 37 1035.1
20210621234227 79 195 5.0 16.0 0.00 0.00 0.00 36 1035.0
20210621233728 80 133 14.0 14.0 0.00 0.00 0.00 35 1034.8
20210621233228 80 177 5.0 19.0 0.00 0.00 0.00 35 1034.9
20210621232728 79 210 6.0 16.0 0.00 0.00 0.00 36 1034.9
20210621232227 79 184 8.0 21.0 0.00 0.00 0.00 36 1034.8
20210621231728 80 162 8.0 20.0 0.00 0.00 0.00 35 1034.8
20210621231229 81 183 15.0 17.0 0.00 0.00 0.00 34 1034.8
20210621230727 80 180 6.0 17.0 0.00 0.00 0.00 35 1034.8
20210621230229 81 152 5.0 16.0 0.00 0.00 0.00 35 1034.9
20210621225728 80 169 7.0 16.0 0.00 0.00 0.00 35 1034.9
20210621225227 80 304 6.0 15.0 0.00 0.00 0.00 35 1034.9
20210621224729 80 221 13.0 17.0 0.00 0.00 0.00 35 1034.8
20210621224228 80 160 5.0 13.0 0.00 0.00 0.00 35 1034.8
20210621223728 80 117 8.0 15.0 0.00 0.00 0.00 35 1034.7
20210621223228 81 197 6.0 18.0 0.00 0.00 0.00 34 1034.7
20210621222727 81 215 6.0 19.0 0.00 0.00 0.00 34 1034.6
20210621222227 81 218 3.0 12.0 0.00 0.00 0.00 35 1034.7
20210621221726 80 160 6.0 14.0 0.00 0.00 0.00 35 1034.7
20210621221227 81 237 9.0 14.0 0.00 0.00 0.00 34 1034.7
20210621220727 81 232 8.0 15.0 0.00 0.00 0.00 34 1034.6
20210621220226 80 245 7.0 16.0 0.00 0.00 0.00 34 1034.5
20210621215727 80 168 12.0 17.0 0.00 0.00 0.00 35 1034.6
20210621215227 80 200 4.0 17.0 0.00 0.00 0.00 35 1034.7
20210621214727 80 172 5.0 20.0 0.00 0.00 0.00 34 1034.5
20210621214227 80 236 12.0 19.0 0.00 0.00 0.00 34 1034.6
20210621213727 80 145 10.0 14.0 0.00 0.00 0.00 35 1034.6
20210621213226 80 122 7.0 13.0 0.00 0.00 0.00 35 1034.7
20210621212727 80 139 12.0 19.0 0.00 0.00 0.00 35 1034.7
20210621212227 81 186 10.0 18.0 0.00 0.00 0.00 34 1034.7
20210621211726 82 184 5.0 17.0 0.00 0.00 0.00 33 1034.6
20210621211227 82 160 5.0 18.0 0.00 0.00 0.00 34 1034.6
20210621210728 82 221 6.0 13.0 0.00 0.00 0.00 34 1034.6
20210621210228 82 207 13.0 17.0 0.00 0.00 0.00 33 1034.5
20210621205727 82 169 5.0 13.0 0.00 0.00 0.00 33 1034.5
20210621205227 82 227 7.0 16.0 0.00 0.00 0.00 34 1034.6
20210621204728 81 211 2.0 17.0 0.00 0.00 0.00 34 1034.6
20210621204227 81 162 11.0 16.0 0.00 0.00 0.00 35 1034.6
20210621203727 81 202 9.0 21.0 0.00 0.00 0.00 35 1034.6
20210621203228 80 160 12.0 20.0 0.00 0.00 0.00 35 1034.4
20210621202727 80 219 4.0 18.0 0.00 0.00 0.00 35 1034.6
20210621202228 81 214 8.0 18.0 0.00 0.00 0.00 33 1034.5
20210621201727 81 200 3.0 16.0 0.00 0.00 0.00 34 1034.4
20210621201227 81 172 7.0 15.0 0.00 0.00 0.00 34 1034.5
20210621200727 81 235 5.0 16.0 0.00 0.00 0.00 34 1034.6
20210621200227 81 200 6.0 15.0 0.00 0.00 0.00 34 1034.6
20210621195728 80 180 3.0 14.0 0.00 0.00 0.00 35 1034.4
20210621195227 79 186 4.0 16.0 0.00 0.00 0.00 36 1034.6
20210621194728 78 165 3.0 20.0 0.00 0.00 0.00 37 1034.6
20210621194226 78 188 6.0 16.0 0.00 0.00 0.00 37 1034.7
20210621193728 79 204 3.0 15.0 0.00 0.00 0.00 37 1034.7
20210621193227 79 215 11.0 13.0 0.00 0.00 0.00 36 1034.8
20210621192728 79 200 7.0 15.0 0.00 0.00 0.00 37 1034.8
20210621192227 77 202 7.0 14.0 0.00 0.00 0.00 39 1034.8
20210621191729 77 175 6.0 16.0 0.00 0.00 0.00 39 1034.8
20210621191226 78 200 4.0 15.0 0.00 0.00 0.00 39 1034.8
20210621190727 77 181 8.0 12.0 0.00 0.00 0.00 39 1034.8
20210621190227 77 232 9.0 13.0 0.00 0.00 0.00 40 1035.0
20210621185727 77 210 2.0 13.0 0.00 0.00 0.00 40 1035.0
20210621185228 78 220 8.0 15.0 0.00 0.00 0.00 39 1034.9
20210621184727 79 248 6.0 14.0 0.00 0.00 0.00 38 1035.1
20210621184228 78 218 6.0 13.0 0.00 0.00 0.00 39 1035.1
20210621183727 77 198 4.0 17.0 0.00 0.00 0.00 39 1035.2
20210621183227 77 165 4.0 16.0 0.00 0.00 0.00 41 1035.3
20210621182727 76 208 7.0 12.0 0.00 0.00 0.00 40 1035.2
20210621182227 77 160 14.0 18.0 0.00 0.00 0.00 40 1035.3
20210621181726 77 132 13.0 13.0 0.00 0.00 0.00 41 1035.4
20210621181226 76 193 6.0 13.0 0.00 0.00 0.00 42 1035.3
20210621180727 75 167 4.0 19.0 0.00 0.00 0.00 42 1035.3
20210621180228 76 149 10.0 17.0 0.00 0.00 0.00 41 1035.4
20210621175726 77 169 14.0 15.0 0.00 0.00 0.00 40 1035.3
20210621175227 77 193 7.0 19.0 0.00 0.00 0.00 41 1035.4
20210621174728 77 149 4.0 15.0 0.00 0.00 0.00 41 1035.2
20210621174227 77 198 10.0 16.0 0.00 0.00 0.00 41 1035.3
20210621173727 76 210 10.0 14.0 0.00 0.00 0.00 41 1035.3
20210621173228 76 183 6.0 13.0 0.00 0.00 0.00 41 1035.4
20210621172727 77 215 11.0 12.0 0.00 0.00 0.00 41 1035.3
20210621172227 77 285 6.0 13.0 0.00 0.00 0.00 42 1035.4
20210621171727 77 183 8.0 17.0 0.00 0.00 0.00 42 1035.3
20210621171227 76 177 3.0 13.0 0.00 0.00 0.00 42 1035.4
20210621170726 76 177 6.0 14.0 0.00 0.00 0.00 43 1035.5
20210621170227 75 142 8.0 15.0 0.00 0.00 0.00 44 1035.3
20210621165727 75 136 0.0 14.0 0.00 0.00 0.00 44 1035.3
20210621165226 75 180 6.0 14.0 0.00 0.00 0.00 44 1035.3
20210621164727 75 253 5.0 14.0 0.00 0.00 0.00 44 1035.2
20210621164228 75 152 9.0 13.0 0.00 0.00 0.00 44 1035.3
20210621163727 74 190 9.0 15.0 0.00 0.00 0.00 45 1035.4
20210621163228 74 266 6.0 17.0 0.00 0.00 0.00 44 1035.2
20210621162727 74 156 11.0 13.0 0.00 0.00 0.00 44 1035.3
20210621162227 74 152 11.0 18.0 0.00 0.00 0.00 43 1035.2
20210621161729 74 140 4.0 17.0 0.00 0.00 0.00 43 1035.2
20210621161229 74 147 7.0 12.0 0.00 0.00 0.00 42 1035.2
20210621160728 74 191 7.0 10.0 0.00 0.00 0.00 43 1035.2
20210621160226 74 214 4.0 14.0 0.00 0.00 0.00 43 1035.2
20210621155727 74 233 8.0 14.0 0.00 0.00 0.00 44 1035.2
20210621155226 74 173 6.0 14.0 0.00 0.00 0.00 43 1035.2
20210621154729 74 160 11.0 11.0 0.00 0.00 0.00 43 1035.3
20210621154227 74 180 4.0 13.0 0.00 0.00 0.00 42 1035.2
20210621153728 74 215 5.0 12.0 0.00 0.00 0.00 43 1035.2
20210621153229 74 221 8.0 13.0 0.00 0.00 0.00 43 1035.3
20210621152726 74 166 4.0 16.0 0.00 0.00 0.00 43 1035.3
20210621152227 74 181 7.0 8.0 0.00 0.00 0.00 42 1035.3
20210621151728 74 166 4.0 9.0 0.00 0.00 0.00 43 1035.3
20210621151228 74 142 1.0 10.0 0.00 0.00 0.00 41 1035.4
20210621150726 74 200 7.0 11.0 0.00 0.00 0.00 40 1035.4
20210621150226 74 229 4.0 7.0 0.00 0.00 0.00 39 1035.4
20210621145727 74 193 1.0 9.0 0.00 0.00 0.00 40 1035.4
20210621145228 74 200 4.0 10.0 0.00 0.00 0.00 38 1035.3
20210621144728 73 197 5.0 8.0 0.00 0.00 0.00 41 1035.3
20210621144229 73 184 6.0 12.0 0.00 0.00 0.00 40 1035.2
20210621143727 73 139 6.0 10.0 0.00 0.00 0.00 41 1035.3
20210621143228 73 174 2.0 7.0 0.00 0.00 0.00 42 1035.3
20210621142729 72 197 3.0 9.0 0.00 0.00 0.00 43 1035.3
20210621142229 72 155 5.0 6.0 0.00 0.00 0.00 42 1035.2
20210621141729 72 176 4.0 9.0 0.00 0.00 0.00 42 1035.3
20210621141229 72 232 4.0 8.0 0.00 0.00 0.00 41 1035.4
20210621140728 72 142 4.0 6.0 0.00 0.00 0.00 41 1035.4
20210621140227 71 139 2.0 3.0 0.00 0.00 0.00 40 1035.4
20210621135728 69 262 1.0 1.0 0.00 0.00 0.00 40 1035.4
20210621135228 68 89 0.0 0.0 0.00 0.00 0.00 41 1035.4